owner,sensor,date,latitude,longitude,vertical_datum,direction_of_sea_water_velocity,sea_water_speed,upward_sea_water_velocity,qcFlag 
TABS,ioos:station:wmo:42049:1,2002-09-01T00:00:00Z,28.3507,-96.0058,2.0,249.3619391,49.28256588,-99999.0,'11111222,11111222,99999999' 
TABS,ioos:station:wmo:42049:1,2002-09-01T00:30:00Z,28.3507,-96.0058,2.0,251.3480943,44.33861184,-99999.0,'11111222,11111222,99999999' 
TABS,ioos:station:wmo:42049:1,2002-09-01T01:00:00Z,28.3507,-96.0058,2.0,255.6157801,29.18484881,-99999.0,'11111222,11111222,99999999' 
TABS,ioos:station:wmo:42049:1,2002-09-01T01:30:00Z,28.3507,-96.0058,2.0,252.6663769,23.02563788,-99999.0,'11111222,11111222,99999999' 
TABS,ioos:station:wmo:42049:1,2002-09-01T02:00:00Z,28.3507,-96.0058,2.0,252.0807654,45.99086975,-99999.0,'11111222,11111222,99999999' 
TABS,ioos:station:wmo:42049:1,2002-09-01T02:30:00Z,28.3507,-96.0058,2.0,253.0878271,46.99223872,-99999.0,'11111222,11111222,99999999' 
TABS,ioos:station:wmo:42049:1,2002-09-01T03:00:00Z,28.3507,-96.0058,2.0,252.4859231,46.02341361,-99999.0,'11111222,11111222,99999999' 
TABS,ioos:station:wmo:42049:1,2002-09-01T03:30:00Z,28.3507,-96.0058,2.0,252.0742263,44.44757024,-99999.0,'11111222,11111222,99999999' 
TABS,ioos:station:wmo:42049:1,2002-09-01T04:00:00Z,28.3507,-96.0058,2.0,250.5240318,40.22131897,-99999.0,'11111222,11111222,99999999' 
TABS,ioos:station:wmo:42049:1,2002-09-01T04:30:00Z,28.3507,-96.0058,2.0,254.5045017,41.24927757,-99999.0,'11111222,11111222,99999999' 
TABS,ioos:station:wmo:42049:1,2002-09-01T05:00:00Z,28.3507,-96.0058,2.0,252.2511154,39.8570458,-99999.0,'11111222,11111222,99999999' 
TABS,ioos:station:wmo:42049:1,2002-09-01T05:30:00Z,28.3507,-96.0058,2.0,250.7637173,38.45705397,-99999.0,'11111222,11111222,99999999' 
TABS,ioos:station:wmo:42049:1,2002-09-01T06:00:00Z,28.3507,-96.0058,2.0,255.3198626,39.30295154,-99999.0,'11111222,11111222,99999999' 
TABS,ioos:station:wmo:42049:1,2002-09-01T06:30:00Z,28.3507,-96.0058,2.0,250.6719115,38.764743,-99999.0,'11111222,11111222,99999999' 
TABS,ioos:station:wmo:42049:1,2002-09-01T07:00:00Z,28.3507,-96.0058,2.0,249.490346,41.58590386,-99999.0,'11111222,11111222,99999999' 
TABS,ioos:station:wmo:42049:1,2002-09-01T07:30:00Z,28.3507,-96.0058,2.0,249.1409752,42.54856167,-99999.0,'11111222,11111222,99999999' 
TABS,ioos:station:wmo:42049:1,2002-09-01T08:00:00Z,28.3507,-96.0058,2.0,234.8458565,53.0938132,-99999.0,'11111222,11111222,99999999' 
TABS,ioos:station:wmo:42049:1,2002-09-01T08:30:00Z,28.3507,-96.0058,2.0,237.7144079,45.1384282,-99999.0,'11111222,11111222,99999999' 
TABS,ioos:station:wmo:42049:1,2002-09-01T09:00:00Z,28.3507,-96.0058,2.0,236.4026563,52.93233605,-99999.0,'11111222,11111222,99999999' 
TABS,ioos:station:wmo:42049:1,2002-09-01T09:30:00Z,28.3507,-96.0058,2.0,241.1790147,28.06651029,-99999.0,'11111222,11111222,99999999' 
TABS,ioos:station:wmo:42049:1,2002-09-01T10:00:00Z,28.3507,-96.0058,2.0,235.7996512,38.64194612,-99999.0,'11111222,11111222,99999999' 
TABS,ioos:station:wmo:42049:1,2002-09-01T10:30:00Z,28.3507,-96.0058,2.0,235.5091843,27.79596553,-99999.0,'11111222,11111222,99999999' 
TABS,ioos:station:wmo:42049:1,2002-09-01T11:00:00Z,28.3507,-96.0058,2.0,241.7996694,17.71239679,-99999.0,'11111222,11111222,99999999' 
TABS,ioos:station:wmo:42049:1,2002-09-01T11:30:00Z,28.3507,-96.0058,2.0,231.1168414,17.25264617,-99999.0,'11111222,11111222,99999999' 
TABS,ioos:station:wmo:42049:1,2002-09-01T12:00:00Z,28.3507,-96.0058,2.0,233.8495628,37.4129523,-99999.0,'11111222,11111222,99999999' 
TABS,ioos:station:wmo:42049:1,2002-09-01T12:30:00Z,28.3507,-96.0058,2.0,237.6660256,37.3750786,-99999.0,'11111222,11111222,99999999' 
TABS,ioos:station:wmo:42049:1,2002-09-01T13:00:00Z,28.3507,-96.0058,2.0,240.5753398,36.57841577,-99999.0,'11111222,11111222,99999999' 
TABS,ioos:station:wmo:42049:1,2002-09-01T13:30:00Z,28.3507,-96.0058,2.0,246.7767415,43.34163126,-99999.0,'11111222,11111222,99999999' 
TABS,ioos:station:wmo:42049:1,2002-09-01T14:00:00Z,28.3507,-96.0058,2.0,241.9465663,41.67647298,-99999.0,'11111222,11111222,99999999' 
TABS,ioos:station:wmo:42049:1,2002-09-01T14:30:00Z,28.3507,-96.0058,2.0,238.3713911,39.7783421,-99999.0,'11111222,11111222,99999999' 
TABS,ioos:station:wmo:42049:1,2002-09-01T15:00:00Z,28.3507,-96.0058,2.0,243.5124536,42.78049205,-99999.0,'11111222,11111222,99999999' 
TABS,ioos:station:wmo:42049:1,2002-09-01T15:30:00Z,28.3507,-96.0058,2.0,247.3189074,47.79618081,-99999.0,'11111222,11111222,99999999' 
TABS,ioos:station:wmo:42049:1,2002-09-01T16:00:00Z,28.3507,-96.0058,2.0,248.1687452,46.92521817,-99999.0,'11111222,11111222,99999999' 
TABS,ioos:station:wmo:42049:1,2002-09-01T16:30:00Z,28.3507,-96.0058,2.0,247.914602,50.26834392,-99999.0,'11111222,11111222,99999999' 
TABS,ioos:station:wmo:42049:1,2002-09-01T17:00:00Z,28.3507,-96.0058,2.0,247.565999,45.43870157,-99999.0,'11111222,11111222,99999999' 
TABS,ioos:station:wmo:42049:1,2002-09-01T17:30:00Z,28.3507,-96.0058,2.0,247.8533185,49.04859835,-99999.0,'11111222,11111222,99999999' 
TABS,ioos:station:wmo:42049:1,2002-09-01T18:00:00Z,28.3507,-96.0058,2.0,246.2176043,48.35610096,-99999.0,'11111222,11111222,99999999' 
TABS,ioos:station:wmo:42049:1,2002-09-01T18:30:00Z,28.3507,-96.0058,2.0,244.9521832,46.43705955,-99999.0,'11111222,11111222,99999999' 
TABS,ioos:station:wmo:42049:1,2002-09-01T19:00:00Z,28.3507,-96.0058,2.0,247.8632484,50.50256726,-99999.0,'11111222,11111222,99999999' 
TABS,ioos:station:wmo:42049:1,2002-09-01T19:30:00Z,28.3507,-96.0058,2.0,248.5632396,48.67730683,-99999.0,'11111222,11111222,99999999' 
TABS,ioos:station:wmo:42049:1,2002-09-01T20:00:00Z,28.3507,-96.0058,2.0,247.2127218,42.2147948,-99999.0,'11111222,11111222,99999999' 
TABS,ioos:station:wmo:42049:1,2002-09-01T20:30:00Z,28.3507,-96.0058,2.0,251.5646734,48.12986599,-99999.0,'11111222,11111222,99999999' 
TABS,ioos:station:wmo:42049:1,2002-09-01T21:00:00Z,28.3507,-96.0058,2.0,252.531351,46.67237406,-99999.0,'11111222,11111222,99999999' 
TABS,ioos:station:wmo:42049:1,2002-09-01T21:30:00Z,28.3507,-96.0058,2.0,251.2995292,45.10088691,-99999.0,'11111222,11111222,99999999' 
TABS,ioos:station:wmo:42049:1,2002-09-01T22:00:00Z,28.3507,-96.0058,2.0,251.5486779,45.30911608,-99999.0,'11111222,11111222,99999999' 
TABS,ioos:station:wmo:42049:1,2002-09-01T22:30:00Z,28.3507,-96.0058,2.0,251.9228419,45.02222673,-99999.0,'11111222,11111222,99999999' 
TABS,ioos:station:wmo:42049:1,2002-09-01T23:00:00Z,28.3507,-96.0058,2.0,253.7968959,44.65362247,-99999.0,'11111222,11111222,99999999' 
TABS,ioos:station:wmo:42049:1,2002-09-01T23:30:00Z,28.3507,-96.0058,2.0,253.9725049,42.37715068,-99999.0,'11111222,11111222,99999999' 
TABS,ioos:station:wmo:42049:1,2002-09-02T00:00:00Z,28.3507,-96.0058,2.0,258.1556536,48.18586619,-99999.0,'11111222,11111222,99999999' 
TABS,ioos:station:wmo:42049:1,2002-09-02T00:30:00Z,28.3507,-96.0058,2.0,261.68203,41.06191057,-99999.0,'11111222,11111222,99999999' 
TABS,ioos:station:wmo:42049:1,2002-09-02T01:00:00Z,28.3507,-96.0058,2.0,268.9523143,14.77246763,-99999.0,'11111222,11111222,99999999' 
TABS,ioos:station:wmo:42049:1,2002-09-02T01:30:00Z,28.3507,-96.0058,2.0,256.7821898,26.98484389,-99999.0,'11111222,11111222,99999999' 
TABS,ioos:station:wmo:42049:1,2002-09-02T02:00:00Z,28.3507,-96.0058,2.0,260.4528345,37.92524357,-99999.0,'11111222,11111222,99999999' 
TABS,ioos:station:wmo:42049:1,2002-09-02T02:30:00Z,28.3507,-96.0058,2.0,260.392322,37.68858846,-99999.0,'11111222,11111222,99999999' 
TABS,ioos:station:wmo:42049:1,2002-09-02T03:00:00Z,28.3507,-96.0058,2.0,260.7328351,37.5703194,-99999.0,'11111222,11111222,99999999' 
TABS,ioos:station:wmo:42049:1,2002-09-02T03:30:00Z,28.3507,-96.0058,2.0,261.2265385,32.3889441,-99999.0,'11111222,11111222,99999999' 
TABS,ioos:station:wmo:42049:1,2002-09-02T04:00:00Z,28.3507,-96.0058,2.0,254.3999295,28.00146068,-99999.0,'11111222,11111222,99999999' 
TABS,ioos:station:wmo:42049:1,2002-09-02T04:30:00Z,28.3507,-96.0058,2.0,246.9977798,26.76828721,-99999.0,'11111222,11111222,99999999' 
TABS,ioos:station:wmo:42049:1,2002-09-02T05:00:00Z,28.3507,-96.0058,2.0,238.8302353,28.18940404,-99999.0,'11111222,11111222,99999999' 
TABS,ioos:station:wmo:42049:1,2002-09-02T05:30:00Z,28.3507,-96.0058,2.0,242.5989634,30.0514775,-99999.0,'11111222,11111222,99999999' 
TABS,ioos:station:wmo:42049:1,2002-09-02T06:00:00Z,28.3507,-96.0058,2.0,251.9094957,29.95047412,-99999.0,'11111222,11111222,99999999' 
TABS,ioos:station:wmo:42049:1,2002-09-02T06:30:00Z,28.3507,-96.0058,2.0,252.0438372,26.46918964,-99999.0,'11111222,11111222,99999999' 
TABS,ioos:station:wmo:42049:1,2002-09-02T07:00:00Z,28.3507,-96.0058,2.0,250.8143003,26.07837802,-99999.0,'11111222,11111222,99999999' 
TABS,ioos:station:wmo:42049:1,2002-09-02T07:30:00Z,28.3507,-96.0058,2.0,242.2399725,23.59564578,-99999.0,'11111222,11111222,99999999' 
TABS,ioos:station:wmo:42049:1,2002-09-02T08:00:00Z,28.3507,-96.0058,2.0,237.8265422,20.63930716,-99999.0,'11111222,11111222,99999999' 
TABS,ioos:station:wmo:42049:1,2002-09-02T08:30:00Z,28.3507,-96.0058,2.0,232.3968395,19.38758623,-99999.0,'11111222,11111222,99999999' 
TABS,ioos:station:wmo:42049:1,2002-09-02T09:00:00Z,28.3507,-96.0058,2.0,234.0856343,18.58258593,-99999.0,'11111222,11111222,99999999' 
TABS,ioos:station:wmo:42049:1,2002-09-02T09:30:00Z,28.3507,-96.0058,2.0,230.1591149,18.87135925,-99999.0,'11111222,11111222,99999999' 
TABS,ioos:station:wmo:42049:1,2002-09-02T10:00:00Z,28.3507,-96.0058,2.0,228.4032327,16.67470539,-99999.0,'11111222,11111222,99999999' 
TABS,ioos:station:wmo:42049:1,2002-09-02T10:30:00Z,28.3507,-96.0058,2.0,233.2538512,11.08202599,-99999.0,'11111222,11111222,99999999' 
TABS,ioos:station:wmo:42049:1,2002-09-02T11:00:00Z,28.3507,-96.0058,2.0,244.672974,5.587002774,-99999.0,'11133222,11111222,99999999' 
TABS,ioos:station:wmo:42049:1,2002-09-02T11:30:00Z,28.3507,-96.0058,2.0,230.4741315,15.19431802,-99999.0,'11111222,11111222,99999999' 
TABS,ioos:station:wmo:42049:1,2002-09-02T12:00:00Z,28.3507,-96.0058,2.0,217.6999145,10.3510869,-99999.0,'11111222,11111222,99999999' 
TABS,ioos:station:wmo:42049:1,2002-09-02T12:30:00Z,28.3507,-96.0058,2.0,228.5800197,18.90958752,-99999.0,'11111222,11111222,99999999' 
TABS,ioos:station:wmo:42049:1,2002-09-02T13:00:00Z,28.3507,-96.0058,2.0,222.8029413,18.63181419,-99999.0,'11111222,11111222,99999999' 
TABS,ioos:station:wmo:42049:1,2002-09-02T13:30:00Z,28.3507,-96.0058,2.0,230.3490217,17.5206307,-99999.0,'11111222,11111222,99999999' 
TABS,ioos:station:wmo:42049:1,2002-09-02T14:00:00Z,28.3507,-96.0058,2.0,219.4483061,14.18035966,-99999.0,'11111222,11111222,99999999' 
TABS,ioos:station:wmo:42049:1,2002-09-02T14:30:00Z,28.3507,-96.0058,2.0,229.4924299,16.51927662,-99999.0,'11111222,11111222,99999999' 
TABS,ioos:station:wmo:42049:1,2002-09-02T15:00:00Z,28.3507,-96.0058,2.0,234.8578283,18.17226458,-99999.0,'11111222,11111222,99999999' 
TABS,ioos:station:wmo:42049:1,2002-09-02T15:30:00Z,28.3507,-96.0058,2.0,242.6714612,17.79620746,-99999.0,'11111222,11111222,99999999' 
TABS,ioos:station:wmo:42049:1,2002-09-02T16:00:00Z,28.3507,-96.0058,2.0,241.0920323,23.85194541,-99999.0,'11111222,11111222,99999999' 
TABS,ioos:station:wmo:42049:1,2002-09-02T16:30:00Z,28.3507,-96.0058,2.0,235.7662024,21.34859714,-99999.0,'11111222,11111222,99999999' 
TABS,ioos:station:wmo:42049:1,2002-09-02T17:00:00Z,28.3507,-96.0058,2.0,248.2275979,21.73007133,-99999.0,'11111222,11111222,99999999' 
TABS,ioos:station:wmo:42049:1,2002-09-02T17:30:00Z,28.3507,-96.0058,2.0,247.0190012,21.74581569,-99999.0,'11111222,11111222,99999999' 
TABS,ioos:station:wmo:42049:1,2002-09-02T18:00:00Z,28.3507,-96.0058,2.0,243.0653321,25.67506573,-99999.0,'11111222,11111222,99999999' 
TABS,ioos:station:wmo:42049:1,2002-09-02T18:30:00Z,28.3507,-96.0058,2.0,245.1465281,28.74183014,-99999.0,'11111222,11111222,99999999' 
TABS,ioos:station:wmo:42049:1,2002-09-02T19:00:00Z,28.3507,-96.0058,2.0,250.2183801,28.12990046,-99999.0,'11111222,11111222,99999999' 
TABS,ioos:station:wmo:42049:1,2002-09-02T19:30:00Z,28.3507,-96.0058,2.0,244.7285222,30.49879998,-99999.0,'11111222,11111222,99999999' 
TABS,ioos:station:wmo:42049:1,2002-09-02T20:00:00Z,28.3507,-96.0058,2.0,242.728621,30.48886518,-99999.0,'11111222,11111222,99999999' 
TABS,ioos:station:wmo:42049:1,2002-09-02T20:30:00Z,28.3507,-96.0058,2.0,241.0670821,30.096332,-99999.0,'11111222,11111222,99999999' 
TABS,ioos:station:wmo:42049:1,2002-09-02T21:00:00Z,28.3507,-96.0058,2.0,243.5025474,33.9345915,-99999.0,'11111222,11111222,99999999' 
TABS,ioos:station:wmo:42049:1,2002-09-02T21:30:00Z,28.3507,-96.0058,2.0,238.9092857,30.26785919,-99999.0,'11111222,11111222,99999999' 
TABS,ioos:station:wmo:42049:1,2002-09-02T22:00:00Z,28.3507,-96.0058,2.0,244.212137,33.28470069,-99999.0,'11111222,11111222,99999999' 
TABS,ioos:station:wmo:42049:1,2002-09-02T23:00:00Z,28.3507,-96.0058,2.0,241.7326098,32.2225387,-99999.0,'11111222,11111222,99999999' 
TABS,ioos:station:wmo:42049:1,2002-09-02T23:30:00Z,28.3507,-96.0058,2.0,239.8522284,29.13027635,-99999.0,'11111222,11111222,99999999' 
TABS,ioos:station:wmo:42049:1,2002-09-03T00:00:00Z,28.3507,-96.0058,2.0,244.4567129,30.33485289,-99999.0,'11111222,11111222,99999999' 
TABS,ioos:station:wmo:42049:1,2002-09-03T00:30:00Z,28.3507,-96.0058,2.0,244.0388443,30.1080936,-99999.0,'11111222,11111222,99999999' 
TABS,ioos:station:wmo:42049:1,2002-09-03T01:00:00Z,28.3507,-96.0058,2.0,241.9660223,28.61765364,-99999.0,'11111222,11111222,99999999' 
TABS,ioos:station:wmo:42049:1,2002-09-03T01:30:00Z,28.3507,-96.0058,2.0,238.3546704,35.05164333,-99999.0,'11111222,11111222,99999999' 
TABS,ioos:station:wmo:42049:1,2002-09-03T02:00:00Z,28.3507,-96.0058,2.0,240.4997101,33.3656485,-99999.0,'11111222,11111222,99999999' 
TABS,ioos:station:wmo:42049:1,2002-09-03T02:30:00Z,28.3507,-96.0058,2.0,230.2061709,30.38955413,-99999.0,'11111222,11111222,99999999' 
TABS,ioos:station:wmo:42049:1,2002-09-03T03:00:00Z,28.3507,-96.0058,2.0,230.6889369,30.24343896,-99999.0,'11111222,11111222,99999999' 
TABS,ioos:station:wmo:42049:1,2002-09-03T03:30:00Z,28.3507,-96.0058,2.0,241.4049994,28.91708319,-99999.0,'11111222,11111222,99999999' 
TABS,ioos:station:wmo:42049:1,2002-09-03T04:00:00Z,28.3507,-96.0058,2.0,241.1178946,28.65403462,-99999.0,'11111222,11111222,99999999' 
TABS,ioos:station:wmo:42049:1,2002-09-03T04:30:00Z,28.3507,-96.0058,2.0,240.7100301,27.94218674,-99999.0,'11111222,11111222,99999999' 
TABS,ioos:station:wmo:42049:1,2002-09-03T05:00:00Z,28.3507,-96.0058,2.0,232.1336716,27.95622471,-99999.0,'11111222,11111222,99999999' 
TABS,ioos:station:wmo:42049:1,2002-09-03T05:30:00Z,28.3507,-96.0058,2.0,245.9791785,27.09655698,-99999.0,'11111222,11111222,99999999' 
TABS,ioos:station:wmo:42049:1,2002-09-03T06:00:00Z,28.3507,-96.0058,2.0,249.4163264,29.52480313,-99999.0,'11111222,11111222,99999999' 
TABS,ioos:station:wmo:42049:1,2002-09-03T06:30:00Z,28.3507,-96.0058,2.0,237.7600336,26.18746647,-99999.0,'11111222,11111222,99999999' 
TABS,ioos:station:wmo:42049:1,2002-09-03T07:00:00Z,28.3507,-96.0058,2.0,232.3915202,25.61212603,-99999.0,'11111222,11111222,99999999' 
TABS,ioos:station:wmo:42049:1,2002-09-03T07:30:00Z,28.3507,-96.0058,2.0,226.4538183,33.99449956,-99999.0,'11111222,11111222,99999999' 
TABS,ioos:station:wmo:42049:1,2002-09-03T08:00:00Z,28.3507,-96.0058,2.0,262.9231103,36.60886505,-99999.0,'11111222,11111222,99999999' 
TABS,ioos:station:wmo:42049:1,2002-09-03T08:30:00Z,28.3507,-96.0058,2.0,261.4296311,37.57959021,-99999.0,'11111222,11111222,99999999' 
TABS,ioos:station:wmo:42049:1,2002-09-03T09:00:00Z,28.3507,-96.0058,2.0,259.4596186,32.69158913,-99999.0,'11111222,11111222,99999999' 
TABS,ioos:station:wmo:42049:1,2002-09-03T09:30:00Z,28.3507,-96.0058,2.0,252.3204601,39.31685644,-99999.0,'11111222,11111222,99999999' 
TABS,ioos:station:wmo:42049:1,2002-09-03T10:00:00Z,28.3507,-96.0058,2.0,247.1614396,36.74026674,-99999.0,'11111222,11111222,99999999' 
TABS,ioos:station:wmo:42049:1,2002-09-03T10:30:00Z,28.3507,-96.0058,2.0,232.884916,35.10032051,-99999.0,'11111222,11111222,99999999' 
TABS,ioos:station:wmo:42049:1,2002-09-03T11:00:00Z,28.3507,-96.0058,2.0,235.5980205,35.06252986,-99999.0,'11111222,11111222,99999999' 
TABS,ioos:station:wmo:42049:1,2002-09-03T11:30:00Z,28.3507,-96.0058,2.0,233.6153123,32.333161,-99999.0,'11111222,11111222,99999999' 
TABS,ioos:station:wmo:42049:1,2002-09-03T12:00:00Z,28.3507,-96.0058,2.0,229.6550211,32.93254318,-99999.0,'11111222,11111222,99999999' 
TABS,ioos:station:wmo:42049:1,2002-09-03T12:30:00Z,28.3507,-96.0058,2.0,222.1360428,32.55342071,-99999.0,'11111222,11111222,99999999' 
TABS,ioos:station:wmo:42049:1,2002-09-03T13:00:00Z,28.3507,-96.0058,2.0,239.4518426,34.25431506,-99999.0,'11111222,11111222,99999999' 
TABS,ioos:station:wmo:42049:1,2002-09-03T13:30:00Z,28.3507,-96.0058,2.0,241.7286546,36.50433673,-99999.0,'11111222,11111222,99999999' 
TABS,ioos:station:wmo:42049:1,2002-09-03T14:00:00Z,28.3507,-96.0058,2.0,244.6020618,40.82565982,-99999.0,'11111222,11111222,99999999' 
TABS,ioos:station:wmo:42049:1,2002-09-03T14:30:00Z,28.3507,-96.0058,2.0,244.4597095,43.74449108,-99999.0,'11111222,11111222,99999999' 
TABS,ioos:station:wmo:42049:1,2002-09-03T15:00:00Z,28.3507,-96.0058,2.0,239.0833107,39.37437365,-99999.0,'11111222,11111222,99999999' 
TABS,ioos:station:wmo:42049:1,2002-09-03T15:30:00Z,28.3507,-96.0058,2.0,232.5098911,36.78815298,-99999.0,'11111222,11111222,99999999' 
TABS,ioos:station:wmo:42049:1,2002-09-03T16:00:00Z,28.3507,-96.0058,2.0,232.0820712,37.73630878,-99999.0,'11111222,11111222,99999999' 
TABS,ioos:station:wmo:42049:1,2002-09-03T16:30:00Z,28.3507,-96.0058,2.0,237.0607944,39.55907102,-99999.0,'11111222,11111222,99999999' 
TABS,ioos:station:wmo:42049:1,2002-09-03T17:00:00Z,28.3507,-96.0058,2.0,233.8266621,39.62893135,-99999.0,'11111222,11111222,99999999' 
TABS,ioos:station:wmo:42049:1,2002-09-03T17:30:00Z,28.3507,-96.0058,2.0,237.5064005,43.81978092,-99999.0,'11111222,11111222,99999999' 
TABS,ioos:station:wmo:42049:1,2002-09-03T18:00:00Z,28.3507,-96.0058,2.0,232.8364019,42.5765581,-99999.0,'11111222,11111222,99999999' 
TABS,ioos:station:wmo:42049:1,2002-09-03T18:30:00Z,28.3507,-96.0058,2.0,228.7897571,42.68239098,-99999.0,'11111222,11111222,99999999' 
TABS,ioos:station:wmo:42049:1,2002-09-03T19:00:00Z,28.3507,-96.0058,2.0,230.503415,44.8250845,-99999.0,'11111222,11111222,99999999' 
TABS,ioos:station:wmo:42049:1,2002-09-03T19:30:00Z,28.3507,-96.0058,2.0,227.6402851,44.97024461,-99999.0,'11111222,11111222,99999999' 
TABS,ioos:station:wmo:42049:1,2002-09-03T20:00:00Z,28.3507,-96.0058,2.0,229.7489768,49.2777607,-99999.0,'11111222,11111222,99999999' 
TABS,ioos:station:wmo:42049:1,2002-09-03T20:30:00Z,28.3507,-96.0058,2.0,224.7380622,51.10313983,-99999.0,'11111222,11111222,99999999' 
TABS,ioos:station:wmo:42049:1,2002-09-03T21:00:00Z,28.3507,-96.0058,2.0,225.1315766,52.21997415,-99999.0,'11111222,11111222,99999999' 
TABS,ioos:station:wmo:42049:1,2002-09-03T21:30:00Z,28.3507,-96.0058,2.0,223.2654227,51.16847174,-99999.0,'11111222,11111222,99999999' 
TABS,ioos:station:wmo:42049:1,2002-09-03T22:00:00Z,28.3507,-96.0058,2.0,225.9072622,49.99872198,-99999.0,'11111222,11111222,99999999' 
TABS,ioos:station:wmo:42049:1,2002-09-03T22:30:00Z,28.3507,-96.0058,2.0,226.1486802,50.07322838,-99999.0,'11111222,11111222,99999999' 
TABS,ioos:station:wmo:42049:1,2002-09-03T23:00:00Z,28.3507,-96.0058,2.0,224.5130149,45.78681579,-99999.0,'11111222,11111222,99999999' 
TABS,ioos:station:wmo:42049:1,2002-09-03T23:30:00Z,28.3507,-96.0058,2.0,229.3648815,61.22212427,-99999.0,'11111222,11111222,99999999' 
TABS,ioos:station:wmo:42049:1,2002-09-04T00:00:00Z,28.3507,-96.0058,2.0,228.4082508,45.19336234,-99999.0,'11111222,11111222,99999999' 
TABS,ioos:station:wmo:42049:1,2002-09-04T00:30:00Z,28.3507,-96.0058,2.0,239.6129359,47.16964808,-99999.0,'11111222,11111222,99999999' 
TABS,ioos:station:wmo:42049:1,2002-09-04T01:00:00Z,28.3507,-96.0058,2.0,244.4441758,44.92510768,-99999.0,'11111222,11111222,99999999' 
TABS,ioos:station:wmo:42049:1,2002-09-04T01:30:00Z,28.3507,-96.0058,2.0,246.2178287,39.60275874,-99999.0,'11111222,11111222,99999999' 
TABS,ioos:station:wmo:42049:1,2002-09-04T02:00:00Z,28.3507,-96.0058,2.0,250.0854957,41.16127306,-99999.0,'11111222,11111222,99999999' 
TABS,ioos:station:wmo:42049:1,2002-09-04T02:30:00Z,28.3507,-96.0058,2.0,246.1772873,49.81404722,-99999.0,'11111222,11111222,99999999' 
TABS,ioos:station:wmo:42049:1,2002-09-04T03:00:00Z,28.3507,-96.0058,2.0,249.7983768,52.73389991,-99999.0,'11111222,11111222,99999999' 
TABS,ioos:station:wmo:42049:1,2002-09-04T03:30:00Z,28.3507,-96.0058,2.0,248.2958798,49.02549745,-99999.0,'11111222,11111222,99999999' 
TABS,ioos:station:wmo:42049:1,2002-09-04T04:00:00Z,28.3507,-96.0058,2.0,244.118609,40.45782495,-99999.0,'11111222,11111222,99999999' 
TABS,ioos:station:wmo:42049:1,2002-09-04T04:30:00Z,28.3507,-96.0058,2.0,242.4747528,42.71489202,-99999.0,'11111222,11111222,99999999' 
TABS,ioos:station:wmo:42049:1,2002-09-04T05:00:00Z,28.3507,-96.0058,2.0,238.5500335,44.69585328,-99999.0,'11111222,11111222,99999999' 
TABS,ioos:station:wmo:42049:1,2002-09-04T05:30:00Z,28.3507,-96.0058,2.0,239.9400943,43.36195683,-99999.0,'11111222,11111222,99999999' 
TABS,ioos:station:wmo:42049:1,2002-09-04T06:00:00Z,28.3507,-96.0058,2.0,238.1423955,42.23151667,-99999.0,'11111222,11111222,99999999' 
TABS,ioos:station:wmo:42049:1,2002-09-04T06:30:00Z,28.3507,-96.0058,2.0,232.6710431,42.21735307,-99999.0,'11111222,11111222,99999999' 
TABS,ioos:station:wmo:42049:1,2002-09-04T07:00:00Z,28.3507,-96.0058,2.0,236.4360542,42.72311318,-99999.0,'11111222,11111222,99999999' 
TABS,ioos:station:wmo:42049:1,2002-09-04T07:30:00Z,28.3507,-96.0058,2.0,240.6434114,41.14326798,-99999.0,'11111222,11111222,99999999' 
TABS,ioos:station:wmo:42049:1,2002-09-04T08:00:00Z,28.3507,-96.0058,2.0,238.676454,46.47360111,-99999.0,'11111222,11111222,99999999' 
TABS,ioos:station:wmo:42049:1,2002-09-04T08:30:00Z,28.3507,-96.0058,2.0,231.5917123,53.64932898,-99999.0,'11111222,11111222,99999999' 
TABS,ioos:station:wmo:42049:1,2002-09-04T09:00:00Z,28.3507,-96.0058,2.0,234.6551229,47.93498618,-99999.0,'11111222,11111222,99999999' 
TABS,ioos:station:wmo:42049:1,2002-09-04T09:30:00Z,28.3507,-96.0058,2.0,229.420714,50.08490791,-99999.0,'11111222,11111222,99999999' 
TABS,ioos:station:wmo:42049:1,2002-09-04T10:00:00Z,28.3507,-96.0058,2.0,229.0515314,48.73540499,-99999.0,'11111222,11111222,99999999' 
TABS,ioos:station:wmo:42049:1,2002-09-04T10:30:00Z,28.3507,-96.0058,2.0,228.9720451,44.60539093,-99999.0,'11111222,11111222,99999999' 
TABS,ioos:station:wmo:42049:1,2002-09-04T11:00:00Z,28.3507,-96.0058,2.0,235.4444801,49.96476859,-99999.0,'11111222,11111222,99999999' 
TABS,ioos:station:wmo:42049:1,2002-09-04T11:30:00Z,28.3507,-96.0058,2.0,235.0942254,52.04258641,-99999.0,'11111222,11111222,99999999' 
TABS,ioos:station:wmo:42049:1,2002-09-04T12:00:00Z,28.3507,-96.0058,2.0,233.5401919,41.04305301,-99999.0,'11111222,11111222,99999999' 
TABS,ioos:station:wmo:42049:1,2002-09-04T12:30:00Z,28.3507,-96.0058,2.0,231.3732024,40.25691742,-99999.0,'11111222,11111222,99999999' 
TABS,ioos:station:wmo:42049:1,2002-09-04T13:00:00Z,28.3507,-96.0058,2.0,229.9231783,44.40752752,-99999.0,'11111222,11111222,99999999' 
TABS,ioos:station:wmo:42049:1,2002-09-04T13:30:00Z,28.3507,-96.0058,2.0,232.1417855,44.07655272,-99999.0,'11111222,11111222,99999999' 
TABS,ioos:station:wmo:42049:1,2002-09-04T14:00:00Z,28.3507,-96.0058,2.0,230.8856584,37.23455653,-99999.0,'11111222,11111222,99999999' 
TABS,ioos:station:wmo:42049:1,2002-09-04T14:30:00Z,28.3507,-96.0058,2.0,226.1990651,30.0656964,-99999.0,'11111222,11111222,99999999' 
TABS,ioos:station:wmo:42049:1,2002-09-04T15:00:00Z,28.3507,-96.0058,2.0,221.0566185,33.00809749,-99999.0,'11111222,11111222,99999999' 
TABS,ioos:station:wmo:42049:1,2002-09-04T15:30:00Z,28.3507,-96.0058,2.0,224.846312,36.98181715,-99999.0,'11111222,11111222,99999999' 
TABS,ioos:station:wmo:42049:1,2002-09-04T16:00:00Z,28.3507,-96.0058,2.0,223.9223754,33.84811368,-99999.0,'11111222,11111222,99999999' 
TABS,ioos:station:wmo:42049:1,2002-09-04T16:30:00Z,28.3507,-96.0058,2.0,219.9021983,38.59805306,-99999.0,'11111222,11111222,99999999' 